This is the latest recevied weather packets stored in our database for station/object AJ1L. If no packets are shown the sender has not sent any weather packets the latest 10 day(s).
| Time | Temp. | Humidity | Pressure | Rain* | Wind** | Luminosity | Snow |
|---|---|---|---|---|---|---|---|
| 1787942205 | 30.56° C | 58% | 1014.7 hPa | 0 mm | - | - | - |
| 1787941204 | 31.11° C | 59% | 1014.5 hPa | 0 mm | - | - | - |
| 1787940205 | 30.56° C | 61% | 1014.8 hPa | 0 mm | - | - | - |
| 1787939206 | 29.44° C | 63% | 1014.7 hPa | 0 mm | - | - | - |
| 1787938205 | 30° C | 61% | 1015.2 hPa | 0 mm | - | - | - |
| 1787936206 | 28.89° C | 63% | 1015.3 hPa | 0 mm | - | - | - |
| 1787933206 | 28.33° C | 69% | 1015.7 hPa | 0 mm | - | - | - |
| 1787932206 | 28.33° C | 67% | 1015.4 hPa | 0 mm | - | - | - |
| 1787931205 | 28.33° C | 69% | 1015.7 hPa | 0 mm | - | - | - |
| 1787930207 | 27.22° C | 75% | 1015.6 hPa | 0 mm | - | - | - |
| 1787929206 | 27.22° C | 76% | 1015.6 hPa | 0 mm | - | - | - |
| 1787928209 | 26.11° C | 79% | 1015.9 hPa | 0 mm | - | - | - |
| 1787927205 | 25.56° C | 84% | 1015.7 hPa | 0 mm | - | - | - |
| 1787926205 | 24.44° C | 88% | 1015.6 hPa | 0 mm | - | - | - |
| 1787924204 | 22.78° C | 94% | 1015.8 hPa | 0 mm | - | - | - |
| 1787923205 | 22.22° C | 95% | 1015.9 hPa | 0 mm | - | - | - |
| 1787922204 | 22.22° C | 95% | 1015.6 hPa | 0 mm | - | - | - |
| 1787921205 | 22.22° C | 95% | 1015.6 hPa | 0 mm | - | - | - |
| 1787920205 | 21.67° C | 95% | 1015.6 hPa | 0 mm | - | - | - |
| 1787919220 | 21.67° C | 95% | 1015.6 hPa | 0 mm | - | - | - |
| 1787918206 | 21.67° C | 95% | 1015.6 hPa | 0 mm | - | - | - |
| 1787917205 | 21.67° C | 95% | 1015.4 hPa | 0 mm | - | - | - |
| 1787916204 | 21.11° C | 95% | 1015.3 hPa | 0 mm | - | - | - |
| 1787914210 | 21.11° C | 95% | 1015.2 hPa | 0 mm | - | - | - |
| 1787913207 | 21.11° C | 95% | 1015 hPa | 0 mm | - | - | - |
* Rain latest hour (hover to see other rain measurements)
** Current wind speed in m/s (hover to see current wind gust speed)